Temp
5 5 5 5 5 6 6 6 6 6 6 6 6 6 6 6 6 6 6 6 6 6 6 7 7 7 7 8 6 6 7 7 7 7 7 7 7 7 7 7 7 7 7
4 5 5 5 5 6 6 6 6 6 6 6 6 6 6 6 6 6 6 6 6 6 6 6 6 7 7 7 7 6 6 6 7 7 7 7 7 7 7 7 7 7 7
4 5 6 6 6 6 6 6 6 6 6 6 6 6 6 6 6 6 6 6 6 6 6 6 6 6 6 7 7 7 6 6 6 6 7 7 7 7 6 7 7 7 7
4 5 5 6 6 6 5 5 5 5 5 5 5 5 5 5 6 6 6 6 6 6 6 6 6 6 6 6 7 7 7 6 6 6 7 7 7 6 7 6 6 6 6
4 5 5 5 5 5 6 6 6 5 5 5 5 5 5 5 5 6 6 6 6 6 5 6 6 6 6 6 6 7 7 6 6 6 6 7 7 7 6 6 6 6 6
4 5 5 5 5 5 5 5 5 6 6 6 6 6 6 6 6 6 6 6 5 6 5 5 5 5 5 6 6 6 7 7 6 6 6 6 6 7 7 7 7 7 7
4 4 5 5 5 5 5 5 5 5 5 5 5 5 5 5 5 5 5 5 5 5 5 5 5 5 5 5 5 6 6 6 7 6 6 6 6 5 6 7 7 7 7
4 4 5 5 5 5 5 5 5 5 5 5 5 5 5 5 5 5 5 6 5 5 5 5 5 5 5 5 5 5 6 6 6 7 6 6 6 5 6 6 6 6 6
4 4 4 4 5 5 5 5 5 5 5 6 6 6 6 5 5 5 5 5 5 6 5 5 5 5 5 5 5 5 5 5 6 6 6 6 5 5 6 5 5 6 6
4 4 4 5 5 5 5 5 5 5 5 5 5 5 6 6 6 6 5 5 5 5 5 5 5 5 5 5 5 5 5 5 5 6 6 6 5 5 5 5 5 5 5
4 4 4 5 5 5 5 5 5 5 5 5 5 5 5 5 6 6 5 5 6 5 5 5 5 5 4 4 5 4 4 5 5 5 5 6 5 5 5 5 5 5 5
4 4 4 4 4 5 5 5 5 5 5 5 5 5 5 5 5 5 5 5 5 5 5 5 5 5 5 5 4 4 4 4 5 5 5 5 5 5 4 4 5 5 5
4 4 5 5 5 5 5 5 5 5 5 5 5 5 5 4 4 5 5 5 5 5 5 5 5 5 5 5 5 4 4 4 4 5 5 5 5 5 5 4 4 5 5
4 4 4 4 4 4 4 4 4 4 5 5 5 4 4 4 4 4 4 4 5 5 5 5 5 5 5 5 5 5 4 4 4 4 5 4 4 5 5 5 4 4 4
4 4 4 4 4 4 4 3 3 3 3 4 4 4 4 4 4 4 4 4 4 4 4 4 4 4 4 4 5 5 4 4 4 4 4 4 4 4 4 4 5 4 4
4 4 3 3 3 3 3 3 3 3 3 3 3 3 3 3 3 3 3 3 3 3 3 4 4 4 4 4 4 4 4 4 4 4 4 4 4 4 4 4 5 5 5
3 3 3 3 3 3 3 3 2 2 2 2 2 2 2 2 3 3 3 3 3 3 3 3 3 3 3 3 4 4 4 4 4 4 4 4 4 4 3 4 4 4 4
3 3 3 2 2 2 2 2 2 1 1 1 1 1 1 1 1 1 1 1 2 2 2 2 2 2 2 3 3 3 3 3 4 4 4 4 4 4 4 3 3 4 4
2 2 2 2 1 1 1 1 1 0 0 0 -0 -0 -0 -0 0 0 0 1 1 1 1 1 1 1 2 2 2 3 3 3 3 3 3 3 4 3 3 3 3 3 3
2 1 1 1 1 0 -0 -0 -0 -0 -1 -1 -1 -1 -1 -2 -2 -1 -1 -1 -1 -1 -1 -0 0 0 0 1 2 2 2 2 3 3 3 3 3 3 3 3 3 3 3
1 1 1 0 0 0 -0 -1 -2 -2 -2 -3 -3 -3 -3 -3 -3 -3 -3 -2 -2 -2 -2 -1 -1 -1 -1 -1 0 1 2 1 2 2 2 2 2 2 3 3 3 3 3
0 0 0 0 -0 -1 -1 -1 -1 -2 -2 -2 -3 -3 -3 -3 -3 -3 -3 -3 -3 -3 -3 -3 -2 -2 -2 -1 -1 -1 1 1 1 1 1 2 2 2 2 2 3 3 3
-0 -0 -0 -1 -1 -1 -2 -2 -2 -3 -3 -3 -4 -4 -4 -4 -3 -3 -3 -3 -3 -3 -2 -2 -2 -3 -2 -3 -3 -2 -2 -0 1 1 0 1 1 2 2 2 2 2 2
-1 -1 -2 -2 -2 -3 -3 -3 -3 -3 -3 -3 -3 -3 -3 -4 -4 -4 -4 -4 -4 -4 -4 -3 -4 -3 -3 -2 -3 -3 -3 -3 -1 1 1 -0 0 0 1 1 1 2 2
-2 -2 -2 -3 -3 -3 -3 -4 -4 -5 -5 -4 -4 -4 -4 -4 -5 -5 -5 -5 -5 -6 -6 -6 -5 -5 -5 -4 -4 -4 -4 -4 -3 -2 1 1 -1 -1 0 0 1 1 1
-2 -2 -3 -3 -4 -5 -5 -6 -6 -5 -5 -5 -5 -5 -5 -6 -6 -7 -7 -8 -8 -8 -8 -8 -8 -8 -7 -7 -6 -6 -5 -5 -4 -4 -2 -1 -0 -0 -1 -1 -1 -0 1
Height
3179 3178 3178 3179 3178 3179 3178 3179 3178 3178 3177 3177 3177 3176 3176 3176 3175 3174 3173 3173 3172 3170 3169 3168 3166 3165 3163 3162 3161 3160 3160 3161 3162 3163 3163 3163 3163 3164 3165 3165 3165 3165 3166
3177 3178 3179 3179 3180 3180 3180 3180 3180 3180 3179 3178 3178 3178 3177 3176 3175 3174 3173 3172 3171 3170 3170 3169 3168 3166 3165 3163 3162 3161 3161 3162 3162 3163 3164 3164 3164 3164 3165 3166 3166 3166 3167
3177 3179 3180 3180 3180 3180 3180 3180 3179 3179 3179 3179 3178 3178 3178 3177 3176 3174 3173 3172 3171 3171 3170 3168 3168 3167 3165 3164 3163 3163 3161 3162 3162 3163 3164 3164 3165 3165 3165 3166 3167 3167 3167
3178 3180 3182 3182 3181 3181 3180 3180 3180 3179 3179 3179 3179 3178 3177 3176 3176 3175 3174 3173 3172 3171 3169 3168 3167 3166 3165 3164 3163 3163 3163 3162 3162 3163 3164 3165 3166 3166 3166 3166 3167 3167 3168
3179 3180 3181 3182 3183 3182 3182 3182 3181 3180 3180 3179 3179 3178 3177 3176 3176 3175 3174 3173 3172 3171 3170 3168 3167 3165 3165 3164 3163 3163 3162 3162 3163 3163 3162 3163 3165 3166 3166 3166 3167 3167 3167
3180 3180 3181 3182 3181 3182 3182 3182 3182 3181 3181 3180 3179 3178 3177 3176 3175 3174 3174 3173 3172 3170 3169 3169 3167 3166 3164 3164 3163 3162 3162 3162 3161 3162 3163 3163 3162 3164 3166 3166 3166 3166 3167
3179 3180 3182 3182 3182 3181 3181 3181 3181 3181 3180 3180 3180 3179 3178 3176 3175 3173 3172 3170 3170 3169 3169 3167 3166 3166 3165 3164 3162 3161 3160 3160 3160 3160 3161 3163 3163 3163 3164 3165 3164 3165 3165
3180 3181 3181 3181 3181 3180 3180 3180 3179 3178 3178 3177 3177 3176 3175 3174 3173 3171 3170 3168 3167 3166 3166 3166 3165 3164 3164 3163 3162 3161 3160 3159 3159 3158 3159 3160 3163 3164 3163 3163 3163 3163 3164
3178 3179 3179 3179 3178 3178 3178 3177 3177 3176 3175 3174 3174 3173 3171 3170 3169 3168 3168 3167 3166 3166 3164 3164 3163 3162 3162 3161 3160 3159 3158 3158 3157 3157 3157 3158 3159 3162 3162 3161 3162 3162 3162
3177 3177 3177 3176 3176 3176 3175 3175 3174 3173 3172 3171 3170 3169 3168 3167 3166 3166 3165 3163 3163 3162 3162 3161 3160 3159 3159 3158 3158 3156 3156 3156 3156 3155 3155 3155 3157 3158 3159 3159 3161 3161 3162
3174 3174 3174 3173 3173 3173 3173 3172 3172 3171 3170 3169 3168 3167 3166 3164 3163 3162 3162 3161 3160 3159 3158 3157 3157 3156 3155 3154 3154 3154 3153 3152 3153 3153 3153 3153 3153 3155 3156 3157 3158 3159 3160
3171 3171 3170 3170 3169 3169 3168 3168 3168 3167 3166 3165 3164 3163 3162 3161 3160 3159 3158 3158 3157 3156 3155 3154 3152 3152 3151 3151 3151 3150 3150 3149 3148 3149 3150 3150 3150 3151 3152 3153 3154 3156 3156
3168 3168 3168 3167 3167 3166 3165 3165 3164 3163 3163 3162 3161 3159 3158 3156 3155 3154 3154 3153 3153 3152 3151 3149 3148 3147 3146 3146 3146 3146 3146 3145 3145 3145 3145 3145 3146 3146 3147 3149 3150 3151 3152
3167 3166 3165 3164 3163 3163 3162 3161 3160 3160 3159 3158 3157 3156 3154 3152 3151 3149 3148 3147 3147 3147 3146 3145 3144 3142 3141 3140 3140 3139 3140 3141 3140 3140 3141 3141 3141 3141 3142 3144 3145 3147 3149
3163 3162 3161 3160 3160 3159 3158 3157 3156 3155 3154 3153 3152 3151 3148 3147 3146 3144 3143 3142 3141 3140 3140 3139 3138 3136 3136 3135 3134 3133 3132 3133 3134 3135 3135 3135 3137 3138 3137 3137 3138 3140 3142
3159 3158 3157 3157 3156 3155 3154 3153 3152 3150 3150 3149 3148 3147 3145 3143 3141 3140 3138 3136 3134 3133 3132 3131 3131 3130 3129 3129 3128 3127 3126 3126 3126 3127 3129 3129 3130 3131 3133 3133 3132 3132 3135
3155 3155 3153 3152 3150 3148 3147 3146 3144 3143 3142 3141 3139 3137 3136 3135 3133 3132 3130 3128 3127 3126 3124 3123 3122 3121 3121 3120 3120 3120 3120 3119 3119 3119 3120 3122 3123 3124 3125 3126 3128 3128 3129
3150 3148 3147 3146 3144 3143 3141 3140 3139 3136 3134 3132 3131 3129 3128 3126 3125 3123 3121 3119 3118 3117 3115 3115 3113 3112 3111 3110 3110 3111 3111 3111 3111 3111 3112 3113 3114 3117 3118 3119 3120 3121 3123
3145 3144 3142 3141 3140 3138 3135 3133 3131 3130 3128 3126 3124 3122 3120 3118 3117 3114 3112 3109 3107 3106 3104 3103 3102 3101 3101 3099 3098 3100 3101 3101 3103 3103 3104 3104 3106 3107 3109 3111 3113 3114 3115
3140 3138 3137 3135 3133 3131 3130 3128 3125 3123 3120 3118 3115 3112 3110 3108 3106 3104 3102 3100 3098 3096 3094 3091 3090 3089 3088 3087 3087 3087 3088 3090 3092 3093 3094 3095 3096 3097 3099 3101 3103 3105 3107
3133 3132 3130 3129 3128 3126 3124 3122 3119 3116 3113 3111 3108 3105 3103 3100 3098 3095 3093 3090 3088 3086 3083 3080 3078 3077 3077 3073 3072 3074 3076 3078 3079 3081 3083 3085 3086 3087 3088 3089 3091 3095 3098
3129 3128 3126 3124 3122 3119 3117 3115 3114 3113 3110 3106 3103 3100 3096 3093 3090 3087 3083 3080 3077 3075 3073 3070 3067 3064 3064 3063 3058 3058 3058 3065 3064 3068 3070 3072 3074 3075 3076 3078 3080 3083 3087
3124 3122 3119 3117 3115 3114 3112 3109 3107 3103 3100 3098 3095 3091 3087 3083 3078 3073 3069 3065 3063 3060 3057 3056 3054 3050 3049 3052 3049 3045 3043 3042 3048 3055 3055 3058 3061 3063 3066 3068 3070 3072 3074
3117 3116 3114 3111 3109 3107 3104 3101 3097 3091 3087 3085 3081 3076 3073 3070 3065 3060 3054 3050 3046 3043 3040 3038 3036 3033 3031 3032 3035 3033 3029 3027 3027 3030 3040 3043 3045 3049 3052 3054 3057 3059 3061
3112 3110 3108 3106 3103 3099 3095 3090 3086 3082 3076 3071 3067 3061 3057 3052 3047 3042 3038 3034 3031 3027 3023 3020 3018 3016 3014 3012 3014 3016 3016 3013 3011 3010 3012 3025 3029 3032 3035 3041 3044 3048 3051
3107 3106 3103 3100 3096 3091 3087 3083 3077 3071 3064 3058 3053 3047 3041 3036 3032 3028 3022 3019 3014 3011 3008 3006 3002 3000 2998 2996 2994 2995 2997 2997 2997 2995 2992 2997 3007 3019 3019 3023 3031 3034 3038
Wind_Speed
6 7 7 5 5 4 3 3 3 2 2 3 4 5 5 5 6 8 9 9 10 11 12 12 12 11 8 5 4 4 2 6 6 7 9 11 10 9 8 8 8 8 7
8 8 7 5 4 3 2 1 1 1 2 3 4 4 4 5 5 6 7 7 7 8 9 11 12 12 11 7 1 3 2 4 7 6 9 10 9 9 9 8 8 8 7
9 6 6 6 5 3 2 1 1 1 1 2 3 3 4 4 5 5 5 5 5 6 7 8 9 10 11 11 7 3 3 6 6 8 8 10 9 9 9 9 9 8 7
5 5 2 0 2 2 1 1 1 1 1 1 1 3 4 5 5 5 5 6 6 6 6 7 7 8 8 8 8 6 5 4 8 9 10 10 12 9 10 10 9 9 8
8 6 3 1 1 3 4 3 3 3 3 4 4 5 5 5 5 6 6 7 8 9 8 8 6 6 6 7 7 6 5 4 6 11 12 12 12 13 12 11 11 9 9
4 5 3 1 1 4 5 6 8 9 10 9 9 9 8 8 9 10 10 10 10 10 11 10 9 8 6 5 6 6 4 4 6 9 13 14 12 12 15 14 13 12 12
2 4 4 3 5 7 8 8 9 10 11 13 14 14 14 14 15 15 14 14 14 13 12 12 11 9 9 8 6 6 6 4 4 8 12 15 13 12 12 10 10 11 12
1 4 5 7 8 10 11 10 11 12 13 13 14 15 17 17 17 16 17 16 15 14 14 12 12 12 11 11 10 9 7 6 6 8 11 14 16 13 12 11 10 9 9
3 5 7 10 12 12 11 10 11 11 12 12 13 14 15 15 15 15 15 15 17 17 16 16 15 15 14 13 13 13 12 9 7 8 10 14 16 17 15 15 12 9 9
8 9 11 12 11 11 11 11 11 11 12 12 12 11 12 13 15 15 16 15 14 15 16 16 18 18 18 18 17 15 15 13 11 9 11 14 19 20 18 17 14 11 11
12 12 13 13 13 13 13 12 12 12 13 13 13 14 14 14 15 15 15 16 16 17 16 16 17 19 21 20 21 21 18 17 14 13 12 15 21 25 23 18 17 13 12
14 15 16 16 16 16 17 16 16 16 15 16 16 17 17 18 19 18 18 18 18 17 17 18 18 19 21 23 24 24 22 22 19 17 15 15 19 25 27 26 20 19 17
15 16 17 18 18 19 20 21 21 22 22 21 22 22 22 22 22 23 23 23 22 21 20 20 20 21 21 22 23 25 26 25 22 22 19 18 18 21 27 29 29 26 25
17 18 19 21 22 23 24 24 26 26 27 27 28 28 28 28 28 28 28 27 26 25 25 25 25 24 24 23 24 23 25 28 28 25 23 22 21 21 23 27 29 31 31
20 21 22 23 24 25 27 27 29 30 30 30 31 31 33 33 33 33 33 33 32 31 30 29 29 29 29 28 26 26 26 26 30 31 28 25 26 24 23 25 31 33 31
22 23 24 25 26 28 29 30 31 33 33 33 33 33 33 34 35 35 36 36 36 36 36 35 34 33 33 32 31 30 29 29 29 33 33 30 29 29 28 26 27 31 33
24 25 26 27 28 29 29 30 31 31 31 32 33 33 33 34 35 36 37 38 39 40 39 39 39 38 38 37 36 35 33 32 32 33 36 35 37 31 31 30 29 27 30
24 26 27 27 28 29 30 30 30 31 32 33 34 34 36 37 38 40 40 41 42 43 43 44 44 43 42 43 42 40 38 37 36 35 36 37 38 38 36 32 32 31 29
26 27 28 29 29 30 31 32 33 34 35 36 37 37 38 38 39 39 40 41 43 43 45 46 46 48 47 47 46 44 44 43 40 39 37 37 37 39 37 37 35 34 35
26 27 28 28 29 31 32 33 34 36 36 36 36 36 35 35 36 37 37 38 40 42 43 45 46 47 50 52 52 50 48 47 45 44 42 40 38 39 41 41 39 38 36
25 26 27 28 29 30 31 31 32 32 32 33 33 34 34 36 37 38 39 40 42 42 43 44 45 47 46 50 53 55 54 51 50 49 47 45 43 41 43 44 44 43 41
25 27 28 28 28 29 30 30 30 31 31 33 34 37 40 43 45 47 48 49 49 50 49 49 50 50 49 50 52 52 56 54 55 53 52 50 49 48 46 45 45 45 45
27 27 26 27 29 30 31 32 33 34 37 40 43 46 49 52 54 56 56 57 57 58 59 58 59 59 58 53 54 56 56 58 56 52 55 55 54 53 51 49 47 46 46
26 26 28 29 30 31 33 36 41 45 49 52 56 58 57 56 56 56 57 58 59 57 57 59 58 60 61 62 58 59 61 62 61 61 55 55 56 56 55 55 53 51 49
28 29 30 31 34 38 41 46 50 53 56 60 61 61 60 60 59 56 54 53 53 53 53 54 55 56 58 61 61 60 61 63 65 66 67 57 55 56 59 57 57 54 53
29 29 30 34 38 42 46 49 53 57 59 60 60 61 60 59 56 53 52 51 50 51 50 49 51 52 53 55 58 59 60 63 65 66 72 70 62 57 57 60 57 56 55
Wind_Direction
140 127 130 142 149 151 140 126 102 77 67 57 61 54 50 43 32 19 19 23 19 20 18 15 11 9 17 34 82 77 147 168 164 164 158 154 153 156 152 143 138 141 139
150 147 140 127 134 146 135 115 90 61 24 16 31 40 31 24 24 27 17 18 22 16 14 14 12 12 9 10 13 180 156 170 180 183 182 170 164 168 168 165 159 163 162
137 162 163 148 141 141 143 145 146 134 339 343 352 0 3 1 0 1 -0 360 4 8 5 5 9 8 11 6 359 307 220 195 188 190 194 187 178 180 178 173 177 179 185
137 150 172 24 146 149 163 134 88 72 91 62 352 357 347 350 356 350 343 338 338 342 349 353 359 1 359 1 0 351 306 230 207 197 195 196 198 190 187 186 191 191 200
153 167 164 69 348 344 334 317 304 306 311 306 301 316 317 321 324 323 322 323 324 325 330 334 337 348 349 343 344 352 338 276 235 216 200 198 206 208 211 205 209 215 231
132 162 174 210 316 313 310 313 313 308 301 295 297 302 307 307 305 304 303 306 306 307 312 317 320 320 323 326 329 331 333 307 246 226 218 206 204 211 221 228 234 236 241
115 190 220 253 285 294 289 289 297 303 309 311 307 304 302 301 301 300 298 295 293 291 289 294 301 302 306 303 299 304 314 303 265 237 226 222 215 204 224 228 236 238 238
228 233 257 273 283 292 294 293 294 297 297 297 296 299 299 297 294 291 290 286 279 278 277 279 280 286 288 287 286 285 281 284 273 242 230 222 215 201 226 223 228 233 232
234 247 267 278 284 285 286 289 292 293 297 301 303 305 305 302 298 295 293 293 293 287 278 271 273 273 273 275 277 274 273 270 262 253 233 223 207 205 227 229 230 227 229
281 282 288 290 290 291 293 294 295 296 296 297 298 298 299 302 304 303 301 296 292 290 288 281 275 271 268 267 266 267 266 266 261 257 243 221 211 210 223 238 237 234 232
276 289 292 291 291 292 292 291 290 291 293 295 297 297 295 294 295 295 294 294 295 292 286 281 280 272 268 265 263 263 262 257 254 254 252 237 220 214 225 231 234 224 232
275 281 282 285 287 290 292 291 290 289 288 289 291 292 292 293 292 290 288 286 286 286 285 281 274 272 271 268 267 262 257 258 253 245 243 247 240 228 227 225 226 231 227
273 273 276 280 284 286 287 288 289 289 289 289 289 288 288 288 286 285 285 284 282 281 279 276 272 269 266 268 268 266 262 256 255 255 243 239 242 240 233 235 237 234 230
270 274 278 281 283 284 285 286 287 287 288 288 288 288 287 286 285 284 283 281 279 277 275 274 274 271 266 262 260 262 263 259 252 250 253 248 241 238 238 235 237 238 240
276 277 279 281 283 284 285 285 286 286 285 284 283 284 285 285 285 285 285 283 280 278 274 272 269 268 268 266 262 257 254 254 251 252 249 250 247 245 239 233 232 237 241
279 281 284 287 290 291 291 291 291 291 290 291 290 289 287 286 285 285 284 283 281 279 276 273 270 267 266 264 263 261 256 252 247 248 252 248 246 244 243 244 238 234 234
287 290 290 288 285 284 285 286 287 288 289 289 288 286 285 284 283 282 281 281 281 280 278 275 272 269 266 265 262 259 257 255 251 246 246 248 248 246 241 241 243 242 237
284 282 283 284 285 286 286 287 287 287 286 286 286 286 285 284 283 282 281 279 278 277 276 275 273 270 268 265 263 261 260 256 253 250 248 245 246 247 244 242 240 242 242
288 290 289 290 291 291 290 290 290 290 290 291 291 291 290 289 288 286 283 281 279 277 275 273 272 271 268 266 264 261 259 258 256 254 251 249 247 246 245 242 242 241 239
290 289 291 291 290 292 294 295 296 296 297 297 297 296 295 294 292 290 288 286 284 282 280 277 274 271 271 268 264 262 258 257 256 255 252 250 248 247 246 244 243 241 240
289 290 291 292 293 294 294 294 296 297 297 298 298 297 297 296 295 293 291 289 287 284 281 280 278 276 273 272 271 265 261 257 255 254 252 250 248 246 246 245 242 241 240
297 296 293 294 295 294 295 297 298 297 295 295 294 296 298 297 295 292 290 288 287 284 282 281 280 278 276 276 274 272 268 259 256 253 252 250 247 246 245 245 245 243 240
297 296 294 293 296 297 299 300 301 300 298 298 297 297 295 294 293 291 289 287 284 282 279 277 275 273 273 271 272 274 273 269 262 253 251 251 249 246 246 244 245 244 242
294 294 297 298 299 301 303 302 302 304 303 303 303 301 299 297 294 294 292 291 289 285 282 279 276 273 271 268 263 263 267 269 268 264 251 250 250 248 247 245 242 242 243
294 298 302 304 303 302 304 306 306 306 305 304 304 302 302 302 302 300 296 293 290 287 284 280 277 274 271 269 266 261 257 259 263 266 263 250 246 246 246 246 245 242 242
295 297 296 298 301 303 303 303 305 306 305 305 306 306 306 304 303 301 299 297 293 291 287 282 279 276 273 270 268 265 260 257 254 256 261 262 254 242 243 244 244 244 242